This is the latest recevied weather packets stored in our database for station/object I4GOS-3. If no packets are shown the sender has not sent any weather packets the latest 10 day(s).
| Time | Temp. | Humidity | Pressure | Rain* | Wind** | Luminosity | Snow |
|---|---|---|---|---|---|---|---|
| 1787995700 | 32.22° C | 39% | 1014.5 hPa | 0 mm | - | - | - |
| 1787995400 | 31.67° C | 41% | 1014.6 hPa | 0 mm | - | - | - |
| 1787995100 | 31.67° C | 42% | 1014.6 hPa | 0 mm | - | - | - |
| 1787994800 | 31.11° C | 43% | 1014.6 hPa | 0 mm | - | - | - |
| 1787994540 | 31.11° C | 41% | 1014.7 hPa | 0 mm | - | - | - |
| 1787994499 | 31.11° C | 41% | 1014.7 hPa | 0 mm | - | - | - |
| 1787994199 | 31.67° C | 42% | 1014.6 hPa | 0 mm | - | - | - |
| 1787993899 | 32.22° C | 43% | 1014.5 hPa | 0 mm | - | - | - |
| 1787993651 | 32.22° C | 42% | 1014.4 hPa | 0 mm | - | - | - |
| 1787993599 | 32.22° C | 42% | 1014.4 hPa | 0 mm | - | - | - |
| 1787993298 | 32.22° C | 35% | 1014.4 hPa | 0 mm | - | - | - |
| 1787992998 | 32.22° C | 36% | 1014.4 hPa | 0 mm | - | - | - |
| 1787992698 | 31.67° C | 36% | 1014.3 hPa | 0 mm | - | - | - |
| 1787992398 | 31.67° C | 37% | 1014.2 hPa | 0 mm | - | - | - |
| 1787992098 | 31.67° C | 37% | 1014.2 hPa | 0 mm | - | - | - |
| 1787991797 | 31.67° C | 40% | 1014.2 hPa | 0 mm | - | - | - |
| 1787991503 | 31.11° C | 38% | 1014.1 hPa | 0 mm | - | - | - |
| 1787991197 | 31.11° C | 38% | 1014.1 hPa | 0 mm | - | - | - |
| 1787990950 | 31.11° C | 38% | 1014.1 hPa | 0 mm | - | - | - |
| 1787990896 | 31.11° C | 38% | 1014.1 hPa | 0 mm | - | - | - |
| 1787990596 | 31.11° C | 37% | 1014.1 hPa | 0 mm | - | - | - |
| 1787990296 | 30.56° C | 40% | 1014.1 hPa | 0 mm | - | - | - |
| 1787989996 | 30.56° C | 41% | 1014.1 hPa | 0 mm | - | - | - |
| 1787989695 | 30.56° C | 45% | 1014.1 hPa | 0 mm | - | - | - |
| 1787989485 | 30° C | 44% | 1014.1 hPa | 0 mm | - | - | - |
* Rain latest hour (hover to see other rain measurements)
** Current wind speed in m/s (hover to see current wind gust speed)